Simultaneous Nadir Overpasses (SNOs) Predictions

Prediction of SNOs between NOAA-20 and AQUA Satellite Orbit:

Table of predicted SNOs for the next 14.0 days since TLE Epoch: 5/4/2024
Index Date (NOAA-20) Time (NOAA-20) Lat,Lon (NOAA-20) SZA (NOAA-20 ) Date (AQUA) Time (AQUA) Lat,Lon (AQUA) SZA (AQUA ) Distance(km) Time Diff (sec)
1 05/06/2024 05:04:06 81.25, 26.78 71.45 05/06/2024 05:04:12 81.24, 26.80 71.44 0.44 6
2 05/08/2024 17:07:14 -81.24, 25.65 109.18 05/08/2024 17:08:19 -81.23, 25.59 109.22 1.11 65
3 05/08/2024 17:57:57 81.25,-166.52 70.74 05/08/2024 17:57:40 81.25,-166.36 70.72 2.78 17
4 05/11/2024 06:01:05 -81.24,-167.70 109.86 05/11/2024 06:01:46 -81.24,-167.56 109.90 2.23 41
5 05/11/2024 06:51:47 81.26, 0.51 70.01 05/11/2024 06:51:07 81.26, 0.46 70.04 0.83 40
6 05/13/2024 18:54:55 -81.25, -0.71 110.54 05/13/2024 18:55:12 -81.25, -0.74 110.55 0.64 17
7 05/13/2024 19:45:38 81.26, 167.11 69.38 05/13/2024 19:44:33 81.27, 167.27 69.40 2.79 65
8 05/16/2024 06:58:04 81.22, -2.82 69.08 05/16/2024 06:59:17 81.20, -2.58 68.99 4.61 73



Historial Predications of SNOs between NOAA-20 and AQUA
